Temp
70 72 72 72 71 72 72 71 73 74 75 75 76 77 77 76 79 81 78 69 70 73 76 76 76 75 75 73 72 72 72 72 72 72 71 70 69 69 69 69 68 68 68
64 65 67 70 70 69 69 70 71 72 72 75 75 75 75 75 75 76 78 69 67 70 73 75 76 76 75 74 72 72 72 72 72 72 71 69 69 69 68 68 68 68 68
63 64 65 66 67 68 67 67 68 69 70 71 73 73 73 74 74 73 75 74 69 66 68 72 73 74 75 74 73 72 71 71 71 71 71 70 69 69 68 67 67 68 68
64 64 66 66 67 67 66 66 66 66 67 67 67 68 69 69 72 73 72 75 71 73 66 66 69 71 72 73 74 73 72 71 71 71 71 70 69 69 68 67 68 67 67
63 63 65 66 66 66 67 67 66 66 65 66 66 66 64 66 62 64 69 72 73 69 68 65 64 64 67 69 73 74 74 72 71 71 71 70 69 69 68 68 68 67 67
60 60 60 59 60 60 60 60 60 63 63 63 66 65 65 65 65 67 66 71 71 65 65 66 66 65 63 66 69 72 74 74 73 72 71 71 69 69 68 67 68 67 67
57 57 56 56 57 56 56 57 56 56 57 61 59 62 63 65 65 66 67 67 64 64 63 62 64 67 68 64 67 70 73 75 74 73 72 71 70 68 67 67 68 68 67
57 55 53 53 54 54 55 55 55 54 54 56 54 55 55 59 63 65 65 64 62 62 64 65 67 70 71 70 66 66 70 73 74 73 72 70 69 69 68 67 68 67 67
56 53 53 53 52 52 51 51 52 51 49 53 55 54 52 52 57 62 64 66 64 64 65 67 69 70 71 70 67 65 62 64 70 72 72 70 69 69 68 68 67 67 67
53 52 51 51 51 51 50 50 51 50 50 48 52 57 54 55 53 53 59 62 65 65 64 65 68 68 70 71 69 65 60 58 62 69 71 71 70 69 68 68 67 67 67
50 49 48 49 48 49 48 48 48 48 49 48 49 49 51 54 55 54 52 57 61 63 65 66 67 68 70 71 71 70 61 56 58 64 68 69 70 69 69 68 68 67 67
46 46 45 46 47 46 46 46 47 47 47 48 49 49 49 48 49 50 50 52 53 59 63 66 66 66 69 71 71 66 61 56 57 60 64 67 68 69 69 68 68 68 67
43 43 44 43 44 45 45 46 46 46 46 45 45 46 48 48 51 50 49 51 52 56 58 64 66 66 71 69 70 63 61 55 55 57 60 62 64 66 66 67 67 68 67
42 43 43 43 44 44 44 44 44 44 44 43 43 42 43 46 46 48 47 46 46 49 54 56 64 67 67 67 68 60 67 53 53 54 56 58 60 61 62 63 64 65 66
43 42 42 42 43 43 43 43 42 41 42 41 40 41 40 40 42 43 44 44 44 42 46 54 56 64 66 70 68 66 67 60 53 53 53 55 58 59 59 59 61 62 63
41 41 41 42 41 41 42 42 41 41 40 39 40 39 38 38 39 40 40 42 42 42 41 50 54 59 63 67 67 66 67 58 52 51 51 52 53 55 56 56 57 58 60
42 41 42 41 40 39 40 41 40 40 38 38 38 37 36 37 37 37 38 40 41 41 40 44 50 55 56 59 63 66 64 65 61 51 49 50 51 51 52 52 53 55 56
42 42 42 41 39 37 38 38 39 40 38 37 37 36 35 37 36 36 37 36 37 38 38 39 45 48 51 55 49 53 63 68 65 55 49 48 49 49 49 49 50 51 51
42 42 41 39 37 36 36 37 40 39 38 37 37 35 34 34 33 35 35 34 35 37 37 37 39 43 45 43 44 46 46 48 53 52 50 48 49 48 49 49 49 49 49
40 40 39 37 36 34 35 36 39 38 37 37 36 37 34 32 32 34 35 34 34 34 35 35 35 37 37 39 39 37 36 42 43 51 53 52 48 48 48 47 47 48 49
38 39 38 35 34 33 34 33 37 35 34 33 33 34 33 33 34 35 34 33 32 32 32 33 32 33 32 31 31 33 34 36 40 47 44 47 54 54 51 46 48 47 47
34 34 34 33 30 33 32 34 36 35 33 30 27 28 31 30 30 34 35 34 32 30 29 30 31 29 30 31 32 31 32 32 33 42 39 39 45 48 58 56 50 46 45
31 30 30 31 28 29 31 33 35 32 30 28 25 24 27 29 29 28 30 31 31 33 32 31 29 28 29 30 31 31 31 31 31 35 35 37 43 42 49 57 48 46 45
28 27 27 27 27 29 31 31 32 30 30 28 26 24 23 24 27 27 25 25 24 27 30 32 31 29 30 31 32 32 33 33 34 35 33 29 34 36 38 42 46 46 45
28 27 27 26 24 25 31 30 27 27 26 25 25 24 24 23 30 30 22 21 21 22 30 33 34 33 33 33 33 30 28 28 28 28 32 29 32 32 34 35 37 40 40
28 30 27 26 28 23 30 30 26 23 23 23 22 22 28 27 29 29 21 20 18 20 23 24 25 26 28 28 32 29 28 26 27 25 29 28 28 30 30 33 37 36 37
MSLP
1012.71 1012.22 1012.26 1012.09 1011.98 1012.03 1012.02 1012.18 1011.96 1011.95 1011.91 1011.75 1011.58 1011.31 1011.21 1011.15 1010.84 1010.83 1010.64 1011.11 1011.38 1011.64 1012.01 1012.52 1013.10 1013.82 1014.39 1014.84 1015.28 1015.75 1016.18 1016.58 1017.06 1017.45 1017.91 1018.32 1018.74 1019.29 1019.78 1020.17 1020.57 1020.85 1021.26
1013.73 1013.47 1013.13 1012.79 1012.52 1012.62 1012.49 1012.29 1011.93 1011.75 1011.42 1011.21 1010.97 1010.66 1010.28 1010.03 1010.09 1009.88 1009.94 1011.07 1011.46 1011.28 1011.27 1011.76 1012.43 1013.18 1013.72 1014.31 1014.80 1015.19 1015.50 1015.87 1016.33 1016.86 1017.24 1017.74 1018.23 1018.77 1019.22 1019.66 1020.16 1020.62 1021.05
1014.27 1014.01 1013.75 1013.52 1013.01 1012.84 1012.61 1012.48 1012.41 1011.98 1011.83 1011.35 1011.03 1010.69 1010.24 1010.14 1009.95 1009.85 1009.31 1009.90 1010.83 1011.02 1010.97 1011.06 1011.57 1012.34 1013.07 1013.50 1014.02 1014.57 1015.01 1015.18 1015.50 1015.92 1016.48 1016.99 1017.46 1017.94 1018.53 1019.04 1019.46 1019.93 1020.51
1014.70 1014.33 1013.95 1013.54 1013.11 1012.86 1012.58 1012.58 1012.38 1012.13 1011.98 1011.87 1011.56 1011.24 1009.39 1011.06 1010.28 1009.64 1009.61 1009.09 1009.82 1010.47 1011.20 1011.45 1011.24 1011.48 1012.21 1012.98 1013.34 1013.67 1014.19 1014.58 1014.79 1015.12 1015.66 1016.33 1016.79 1017.33 1017.96 1018.45 1018.84 1019.24 1019.78
1015.03 1014.70 1014.20 1013.94 1013.59 1013.12 1012.83 1012.80 1012.80 1012.53 1012.34 1011.78 1011.40 1011.48 1011.13 1011.09 1010.30 1007.49 1010.38 1009.53 1009.71 1010.26 1010.97 1011.66 1011.65 1011.69 1012.22 1012.61 1012.72 1013.19 1013.48 1013.92 1014.22 1014.38 1014.63 1015.20 1015.93 1016.44 1017.12 1017.78 1018.24 1018.61 1019.05
1015.72 1015.50 1015.10 1015.06 1014.78 1014.39 1014.06 1013.83 1013.60 1013.22 1012.71 1012.12 1011.29 1010.74 1010.86 1010.25 1009.92 1010.01 1010.37 1009.80 1009.48 1009.96 1011.33 1010.69 1011.14 1011.59 1011.74 1011.98 1012.28 1012.59 1012.92 1013.16 1013.62 1013.79 1014.01 1014.32 1014.80 1015.57 1016.10 1016.80 1017.44 1017.84 1018.48
1016.42 1016.31 1016.22 1015.98 1015.73 1015.50 1015.33 1015.07 1014.76 1014.18 1013.57 1013.04 1012.19 1011.14 1010.28 1010.18 1010.15 1010.10 1009.55 1009.05 1009.06 1007.12 1007.17 1009.47 1009.66 1010.58 1010.62 1010.87 1010.94 1011.65 1012.21 1012.44 1012.70 1013.17 1013.42 1013.69 1014.08 1014.64 1015.23 1015.76 1016.37 1016.98 1017.61
1017.00 1017.04 1017.07 1016.86 1016.71 1016.27 1015.94 1015.86 1015.53 1014.95 1014.51 1014.28 1013.75 1012.54 1010.94 1009.88 1009.43 1009.23 1009.01 1009.08 1008.87 1008.14 1008.67 1009.55 1009.77 1010.33 1010.01 1009.97 1009.93 1010.37 1010.95 1011.57 1011.68 1012.14 1012.66 1013.00 1013.19 1013.71 1014.43 1014.80 1015.49 1016.15 1016.65
1017.69 1017.67 1017.70 1017.30 1017.20 1016.97 1016.56 1016.47 1016.19 1015.94 1015.38 1015.00 1014.77 1014.36 1012.56 1011.32 1010.71 1009.36 1009.25 1009.27 1009.36 1009.50 1009.32 1009.49 1009.27 1009.45 1009.09 1008.98 1009.03 1009.73 1009.91 1010.70 1010.87 1010.84 1011.57 1012.19 1012.49 1012.78 1013.45 1014.05 1014.43 1015.27 1015.84
1018.13 1018.30 1018.19 1017.87 1017.59 1017.39 1017.11 1017.02 1016.74 1016.42 1016.14 1015.46 1015.03 1014.44 1014.28 1013.94 1012.42 1010.62 1009.52 1009.37 1009.07 1008.94 1009.15 1009.00 1008.86 1008.56 1008.30 1008.07 1008.34 1008.68 1008.92 1009.47 1010.19 1009.81 1010.40 1011.05 1011.51 1011.77 1012.42 1013.06 1013.52 1014.22 1014.96
1019.04 1019.09 1018.98 1018.46 1018.04 1017.81 1017.75 1017.42 1017.04 1016.72 1016.39 1016.06 1015.61 1015.12 1014.62 1013.81 1013.33 1012.41 1010.74 1009.55 1009.24 1008.81 1008.51 1008.08 1007.83 1007.63 1007.12 1006.90 1007.34 1007.46 1007.63 1008.12 1008.76 1008.88 1009.36 1010.02 1010.37 1010.65 1011.21 1011.90 1012.45 1013.06 1013.80
1019.95 1019.90 1019.79 1019.24 1018.69 1018.37 1018.13 1017.75 1017.28 1017.02 1016.61 1016.20 1015.86 1015.54 1015.01 1014.45 1013.73 1013.51 1012.48 1011.24 1010.55 1009.16 1008.43 1007.64 1006.90 1006.63 1006.31 1005.76 1006.14 1006.41 1006.40 1006.84 1007.23 1007.79 1008.27 1008.78 1009.09 1009.54 1009.96 1010.63 1011.32 1012.05 1012.64
1020.48 1020.67 1020.21 1019.76 1019.23 1018.74 1018.34 1017.84 1017.64 1017.20 1016.78 1016.65 1016.41 1015.94 1015.42 1014.97 1014.63 1014.21 1013.55 1012.13 1010.72 1009.46 1008.73 1007.57 1006.56 1006.10 1005.59 1005.33 1004.96 1004.74 1004.99 1005.53 1006.06 1006.51 1007.27 1007.83 1008.13 1008.57 1008.93 1009.50 1010.19 1010.97 1011.64
1020.94 1021.01 1020.62 1020.05 1019.51 1019.06 1018.61 1018.24 1017.95 1017.75 1017.39 1017.08 1016.69 1016.65 1016.18 1015.66 1015.32 1014.69 1014.28 1013.46 1011.64 1010.37 1009.02 1007.91 1006.94 1006.22 1005.26 1004.67 1003.91 1003.98 1004.42 1004.84 1005.27 1005.69 1006.38 1006.92 1007.28 1007.62 1008.03 1008.58 1009.17 1010.00 1010.45
1021.40 1021.29 1020.93 1020.42 1019.65 1019.10 1018.84 1018.59 1018.45 1018.14 1017.77 1017.19 1017.28 1017.18 1017.12 1016.60 1015.88 1015.41 1014.98 1014.60 1013.65 1011.57 1009.47 1008.21 1007.47 1006.29 1005.77 1004.89 1003.96 1004.05 1003.52 1003.76 1004.42 1004.92 1005.45 1005.73 1006.10 1006.57 1007.02 1007.44 1008.03 1008.95 1009.18
1021.90 1021.50 1021.09 1020.70 1020.08 1019.56 1018.85 1018.82 1018.73 1018.26 1018.24 1018.22 1018.07 1017.99 1017.61 1016.97 1016.23 1015.82 1015.28 1014.66 1014.07 1013.14 1010.83 1009.46 1008.27 1007.24 1006.42 1005.53 1004.63 1004.06 1003.99 1003.44 1003.62 1004.82 1004.64 1004.92 1005.55 1005.81 1006.31 1006.74 1007.17 1007.81 1008.11
1022.07 1021.69 1021.34 1021.07 1020.61 1020.02 1019.44 1019.34 1019.34 1019.54 1019.04 1018.80 1018.77 1018.28 1017.95 1017.48 1016.95 1016.38 1015.60 1014.76 1013.97 1013.18 1011.76 1010.13 1009.30 1008.22 1007.27 1006.56 1005.40 1004.67 1004.29 1003.91 1003.56 1004.17 1004.37 1004.67 1004.82 1005.17 1005.46 1005.94 1006.50 1007.03 1007.40
1022.06 1021.67 1021.40 1021.39 1021.24 1020.63 1020.37 1020.26 1020.05 1019.48 1019.43 1019.19 1018.75 1018.85 1018.64 1018.23 1017.57 1016.83 1016.04 1015.53 1014.76 1013.93 1013.06 1011.42 1010.15 1009.11 1008.35 1007.56 1007.47 1006.38 1005.13 1003.98 1003.91 1003.62 1003.38 1003.82 1004.85 1004.86 1004.84 1005.03 1005.74 1006.02 1006.81
1022.41 1022.09 1022.14 1022.02 1022.07 1021.66 1021.25 1021.22 1020.53 1020.31 1020.08 1019.90 1019.64 1019.68 1019.62 1019.02 1018.14 1017.27 1016.62 1016.13 1015.40 1014.58 1013.77 1012.94 1011.67 1010.78 1009.62 1009.12 1008.18 1007.44 1006.78 1006.12 1005.64 1005.19 1004.70 1003.86 1003.80 1003.89 1004.08 1004.49 1005.04 1005.18 1005.90
1023.12 1022.86 1022.94 1023.08 1022.90 1022.90 1022.45 1022.05 1021.07 1021.32 1020.85 1020.87 1020.49 1020.26 1020.44 1019.80 1019.01 1017.95 1017.30 1016.76 1016.09 1015.28 1014.48 1013.66 1013.05 1012.17 1011.73 1011.28 1010.32 1009.57 1008.02 1007.83 1007.12 1005.92 1004.60 1003.66 1003.45 1003.64 1003.51 1003.82 1004.07 1004.56 1005.05
1023.96 1023.62 1023.73 1024.08 1024.06 1023.98 1023.62 1022.92 1021.97 1021.78 1021.59 1021.61 1021.42 1021.17 1020.95 1020.70 1019.93 1019.02 1018.29 1017.65 1017.03 1016.24 1015.59 1014.81 1014.08 1013.68 1013.11 1012.49 1012.00 1011.50 1011.07 1009.66 1007.95 1006.83 1006.04 1004.80 1004.73 1003.45 1003.36 1003.61 1003.73 1004.01 1004.03
1025.06 1024.99 1024.88 1025.06 1025.13 1024.75 1024.34 1023.53 1022.43 1022.34 1022.40 1022.61 1022.65 1022.40 1021.71 1021.33 1020.86 1019.96 1019.20 1018.68 1018.17 1017.40 1016.53 1015.77 1015.25 1014.74 1014.50 1014.10 1013.01 1012.58 1011.49 1010.39 1009.30 1008.07 1007.85 1006.10 1006.00 1004.72 1003.33 1002.53 1002.22 1002.63 1002.92
1025.90 1025.94 1026.01 1025.89 1025.90 1025.48 1024.85 1024.07 1023.09 1023.13 1023.33 1023.57 1023.57 1023.32 1022.77 1022.27 1021.54 1020.85 1020.14 1019.73 1019.11 1018.44 1017.79 1017.14 1016.66 1016.28 1015.55 1014.77 1014.06 1012.76 1012.04 1012.04 1011.07 1009.64 1008.70 1006.95 1005.90 1004.96 1003.80 1002.26 1001.40 1001.36 1001.78
1026.38 1026.51 1026.72 1026.73 1026.50 1026.06 1025.48 1024.79 1024.22 1024.11 1023.98 1023.93 1024.05 1024.04 1023.58 1022.97 1022.18 1021.44 1020.98 1020.46 1019.97 1019.40 1018.63 1017.74 1017.49 1017.24 1016.66 1015.99 1015.07 1014.00 1013.25 1012.10 1010.85 1010.17 1009.89 1008.30 1007.11 1005.82 1004.29 1003.09 1002.25 1000.92 1000.55
1026.69 1026.97 1027.16 1027.32 1027.15 1026.86 1026.27 1025.90 1025.58 1025.16 1024.88 1024.82 1024.94 1024.68 1024.31 1023.75 1022.91 1022.21 1021.93 1021.35 1020.85 1020.14 1019.30 1018.72 1018.24 1017.80 1017.28 1016.46 1015.68 1014.83 1013.73 1012.71 1011.79 1011.31 1011.29 1011.05 1008.78 1006.65 1004.65 1003.24 1002.40 1001.93 1001.78
1026.93 1027.15 1027.48 1027.62 1027.72 1027.70 1026.89 1026.46 1026.45 1026.35 1025.86 1025.78 1025.61 1025.64 1024.75 1024.21 1023.78 1023.03 1022.87 1022.40 1021.56 1020.94 1020.12 1019.50 1018.89 1018.39 1017.93 1017.38 1016.70 1016.34 1015.69 1014.66 1013.68 1011.77 1011.36 1010.80 1009.68 1008.90 1006.26 1003.79 1003.40 1002.95 1002.35
Wind_Speed
6 5 4 4 5 6 6 7 8 8 9 10 11 13 11 11 13 9 4 20 19 21 22 21 21 20 19 18 18 18 18 18 17 18 18 18 17 16 16 15 15 17 17
7 6 6 6 5 6 7 8 10 10 10 11 13 14 15 11 7 6 4 8 15 17 21 22 21 20 20 18 18 19 19 19 19 19 19 19 18 17 16 17 16 16 17
8 6 5 5 3 4 5 6 7 7 10 11 15 15 13 13 10 8 5 5 9 15 18 21 21 21 20 20 19 19 20 20 21 22 22 21 21 20 19 17 19 19 18
8 8 5 4 3 4 3 3 4 6 5 6 7 10 9 13 17 11 6 7 6 9 9 14 17 20 19 19 20 20 21 22 22 23 23 22 22 21 20 18 19 19 20
10 9 7 8 10 5 4 4 6 5 6 7 7 6 3 5 5 12 18 17 12 2 2 9 10 8 10 14 19 20 20 22 23 24 25 25 24 23 22 21 20 20 21
12 11 9 11 10 9 10 10 10 8 7 7 9 8 3 5 6 9 14 15 12 7 7 6 2 7 15 17 17 20 22 22 23 24 25 25 26 25 25 25 24 22 22
11 10 8 8 9 8 8 9 9 11 8 8 7 9 4 5 8 8 9 10 9 5 4 12 9 8 9 23 22 24 24 25 24 24 24 25 25 25 26 26 26 25 23
9 9 9 8 10 7 8 8 9 8 6 9 6 7 4 4 3 5 4 5 6 4 8 16 17 18 13 8 11 22 24 26 26 25 24 24 25 25 25 26 26 26 26
8 9 10 9 9 8 6 8 8 9 8 8 7 5 5 3 11 4 4 7 9 7 10 13 15 16 14 10 8 12 20 24 25 26 24 24 25 24 25 26 26 26 26
9 11 11 10 9 8 8 7 7 7 7 8 7 5 8 8 5 8 3 8 7 7 10 10 12 13 14 11 14 14 19 22 24 25 25 26 26 25 25 26 26 27 27
13 13 12 10 10 8 9 9 8 7 5 6 6 6 7 6 8 6 10 7 9 7 7 8 9 10 13 13 14 16 17 21 23 24 26 26 26 27 26 27 27 28 29
7 10 12 10 9 9 9 9 8 9 7 7 7 6 6 5 6 5 8 13 13 11 10 10 7 9 12 11 17 20 18 20 23 26 29 29 27 27 27 28 28 28 29
7 8 9 9 8 9 9 10 9 8 8 7 8 7 7 7 7 6 8 11 10 10 9 12 8 7 9 10 13 17 19 20 24 25 25 24 25 25 26 27 28 29 29
6 9 9 8 8 8 8 8 6 7 7 7 10 9 7 7 8 7 6 8 11 10 11 12 11 11 6 7 13 14 11 12 17 20 22 23 23 21 22 24 26 28 28
8 9 9 9 9 9 9 8 6 7 8 9 9 10 8 7 7 7 6 7 7 6 11 9 10 13 12 12 12 5 6 8 14 21 23 25 27 24 22 22 24 27 27
8 8 9 10 10 10 11 10 8 10 10 7 7 9 9 8 8 7 7 6 6 7 8 6 10 13 14 12 13 9 9 3 11 16 20 20 19 21 21 21 23 25 26
7 8 8 9 11 12 13 10 9 7 8 9 8 10 12 11 8 7 7 7 6 7 8 7 9 12 15 15 16 11 9 6 3 16 14 15 20 19 18 19 20 21 22
6 8 10 11 12 13 13 13 10 11 11 11 11 12 14 10 10 10 7 10 8 8 8 11 10 9 11 14 14 16 14 11 9 6 12 14 17 18 19 19 19 19 19
10 11 12 13 14 14 14 13 10 11 11 12 12 12 14 14 13 10 9 9 9 8 7 7 7 8 8 13 15 12 14 13 11 23 13 16 20 20 19 18 18 18 19
10 10 12 14 13 14 14 13 11 11 12 12 12 11 14 16 15 13 11 12 11 10 9 8 7 7 8 11 7 12 14 11 14 13 15 9 12 16 18 19 19 21 21
11 11 12 13 14 13 11 13 9 9 11 13 14 13 14 22 26 20 10 11 13 11 9 8 8 8 9 11 12 9 9 13 12 4 11 11 11 6 6 13 13 19 22
11 12 12 13 14 11 22 22 13 10 12 13 13 14 13 20 21 23 23 22 17 13 13 11 10 11 12 11 10 10 8 11 8 5 13 14 10 11 10 7 15 19 21
10 10 11 11 13 14 26 24 16 9 10 11 13 13 13 13 19 15 19 20 19 22 18 10 11 11 11 15 14 12 12 10 7 10 11 7 8 11 11 12 13 17 20
7 8 9 11 11 13 26 25 22 9 8 11 12 14 14 15 19 19 16 14 13 13 14 10 10 10 10 12 14 12 12 11 9 2 14 6 10 11 12 12 20 16 19
5 6 6 8 11 11 25 25 17 11 10 11 12 12 13 12 26 27 15 15 14 13 16 22 21 22 24 25 23 11 13 13 10 5 8 7 6 14 9 8 8 16 19
4 5 7 8 17 11 23 24 18 8 10 8 9 10 21 19 25 26 13 13 15 15 15 14 12 15 16 17 22 14 11 11 9 4 8 11 7 10 9 4 12 6 7
Wind_Direction
1 337 321 312 296 267 253 237 239 234 231 224 232 237 233 223 215 218 196 183 179 180 178 182 191 201 205 200 199 198 198 202 204 199 198 195 192 190 190 188 183 183 182
7 359 355 1 9 4 345 311 277 255 240 235 234 237 246 241 242 238 189 183 199 187 181 186 191 202 205 201 200 199 200 200 203 200 200 195 196 198 192 187 190 190 189
1 352 346 338 349 344 334 336 328 323 298 277 263 256 246 254 249 252 250 169 205 213 195 189 187 197 204 203 203 202 204 204 201 199 201 198 196 197 195 192 194 190 193
2 350 333 307 339 330 312 309 310 311 299 296 301 303 298 311 292 250 250 245 194 219 227 223 198 192 200 208 211 208 209 211 205 200 200 200 200 199 199 195 194 194 195
13 354 345 6 354 336 329 349 347 328 318 312 307 299 249 242 240 324 291 269 253 191 162 217 236 222 230 223 217 221 218 214 211 204 199 198 200 199 198 199 204 199 195
21 12 5 9 4 356 359 355 348 339 324 312 303 289 260 268 224 242 255 271 289 96 354 295 251 235 223 221 225 231 229 221 218 212 206 202 200 201 197 199 207 204 202
28 23 4 2 9 358 352 348 346 340 335 331 313 329 294 222 236 242 251 237 216 211 358 287 302 241 223 216 217 223 232 230 221 220 211 205 204 202 200 200 204 207 202
34 17 3 5 358 347 355 353 349 336 322 6 332 291 302 331 245 275 264 257 257 241 221 231 234 244 240 223 211 215 226 231 224 221 216 209 206 203 202 201 202 204 202
26 30 2 3 358 355 354 356 346 352 329 331 341 320 328 324 338 301 295 241 237 211 238 241 238 236 233 232 215 215 217 226 225 218 217 212 206 203 203 204 201 206 207
28 28 7 359 357 351 353 346 348 338 337 327 332 334 326 323 318 313 326 327 256 231 217 227 230 232 230 234 234 223 202 210 221 215 218 211 208 202 203 205 204 204 207
12 18 360 359 357 354 344 345 342 342 329 325 325 318 309 294 293 283 296 325 326 332 295 234 238 243 235 229 233 234 216 202 211 216 220 216 211 205 204 204 204 204 205
7 11 359 350 358 351 344 339 341 335 328 325 322 319 319 330 338 311 306 300 301 304 309 302 276 238 240 225 224 230 217 205 208 214 218 218 214 210 205 206 205 207 207
4 1 353 356 355 346 347 342 337 346 355 355 340 337 336 334 315 305 301 295 296 303 306 303 297 288 258 242 228 216 220 202 207 209 213 216 215 211 209 207 207 208 209
6 2 355 349 357 353 355 353 1 4 360 7 3 1 339 338 347 340 321 308 301 289 291 291 296 310 292 245 249 232 228 208 208 206 211 215 211 209 207 208 209 211 207
14 7 1 357 9 11 14 12 13 12 20 14 13 4 6 344 341 335 325 320 318 309 298 292 300 311 307 317 325 294 229 253 220 208 212 207 208 208 205 203 207 212 205
16 14 7 6 19 15 18 20 13 18 20 20 23 12 6 349 348 338 331 314 301 286 281 333 323 320 318 311 306 325 301 158 204 228 212 204 210 204 208 212 210 210 207
17 12 17 24 26 17 15 17 18 22 25 26 23 21 12 358 354 344 334 327 327 332 298 319 316 318 325 336 337 323 302 282 195 219 218 221 214 215 206 207 209 213 211
29 17 22 32 27 23 16 1 19 22 26 22 25 27 16 1 358 356 359 350 348 327 324 315 315 333 331 342 343 342 338 333 331 237 210 212 230 223 219 212 210 209 213
20 32 28 32 28 24 14 358 24 22 23 25 19 36 18 6 1 4 8 359 353 345 345 326 324 346 339 8 342 350 349 339 344 336 299 242 227 221 225 228 222 216 214
32 31 40 29 39 19 9 357 23 25 25 27 18 31 26 10 4 3 9 9 358 358 355 360 357 354 5 359 357 352 343 345 330 319 308 249 216 230 224 218 217 221 222
29 28 44 40 23 27 9 358 2 40 29 30 18 14 31 18 9 12 16 16 11 11 3 3 8 4 3 1 5 345 331 323 324 358 347 327 336 261 221 228 235 226 224
43 31 28 47 31 24 13 8 20 31 35 39 23 13 20 18 9 11 20 19 25 16 13 8 6 5 360 355 349 344 339 353 344 353 330 314 323 297 286 228 213 221 220
54 46 33 35 34 24 20 13 44 32 44 47 38 21 16 13 12 9 12 16 17 23 22 9 12 10 352 354 347 346 355 338 309 317 334 315 333 313 307 293 241 216 217
61 55 48 37 34 25 28 20 17 37 43 43 45 30 18 10 15 18 9 13 8 7 11 15 20 8 2 355 356 348 344 329 319 12 12 329 319 313 316 301 299 241 220
71 72 58 51 40 24 33 32 23 12 29 40 32 20 24 11 19 23 13 10 7 5 5 10 18 17 12 10 10 350 0 354 348 332 27 324 318 318 314 302 333 335 324
59 83 74 54 50 29 29 35 38 14 26 34 28 17 18 24 21 24 24 13 14 359 355 1 7 11 10 1 3 8 352 347 340 326 1 337 332 347 322 314 334 336 323